Location: La Brionne
(46.1728°N, 1.7849°E)
Time: 07:08:23
(UTC+00:00)

Cosmos 1346 Rocket - Pass Details

Date: 16 June 2021
Orbit: 526 x 551 km, 81.2° (Epoch: 31 July)

Event Time Altitude Azimuth Distance (km) Brightness Sun altitude
Exits shadow 22:18:25 35° 130° (SE) 900 3.4 -17.2°
Maximum altitude 22:19:22 41° 95° (E) 801 3.4 -17.2°
Drops below altitude 10° 22:23:10 10° 25° (NNE) 1,829 6.1 -17.5°
Sets 22:25:25 0° 18° (NNE) 2,731 7.2 -17.6°
